Regional Weather Roundup
Issued by NWS

Home | Current Version | Previous Version | Text Only | Print | Product List | Glossary Off
Versions: 1 2 3 4 5 6 7 8 9 10 11 12 13 14 15 16 17 18 19 20 21 22 23 24 25 26 27 28 29 30 31 32 33 34 35 36 37 38 39 40 41 42 43 44 45 46 47 48 49 50

000
ASUS43 KTOP 170108
RWRKS

WEATHER ROUNDUP FOR KANSAS
NATIONAL WEATHER SERVICE GOODLAND KS
800 PM CDT TUE SEP 16 2014

NOTE:  "FAIR" INDICATES FEW OR NO CLOUDS BELOW 12,000 FEET WITH NO
SIGNIFICANT WEATHER AND/OR OBSTRUCTIONS TO VISIBILITY.

KSZ001>006-013>018-027>032-041>047-170200-
NORTHWEST KANSAS

CITY           SKY/WX    TMP DP  RH WIND       PRES   REMARKS
GOODLAND       CLEAR     76  54  46 N3        30.01R
HAYS           PTCLDY    73  63  68 SE10      29.95F
HILL CITY      CLEAR     72  62  71 E8        29.95F
RUSSELL        CLEAR     70  62  76 SE9       29.95F
$$

KSZ061>065-074>080-084>089-170200-
SOUTHWEST KANSAS

CITY           SKY/WX    TMP DP  RH WIND       PRES   REMARKS
DODGE CITY     CLEAR     78  60  53 S10       29.99S
ELKHART          N/A     74  57  55 S9          N/A
GARDEN CITY    CLEAR     75  61  61 S8        29.98S
GREAT BEND     CLEAR     75  61  60 S10       29.97S
LIBERAL        CLEAR     79  59  50 S13       30.02S
PRATT          CLEAR     73  59  60 S9        30.01S
$$

KSZ066>073-081>083-090>101-170200-
SOUTHEAST KANSAS

CITY           SKY/WX    TMP DP  RH WIND       PRES   REMARKS
CHANUTE        CLEAR     68  63  84 SE5       30.02F
COFFEYVILLE    PTCLDY    70  66  87 S6        30.02F
HUTCHINSON     CLEAR     73  61  65 S7        29.99S
MEDICINE LODGE   N/A     76  63  64 SE6       29.99S
NEWTON         CLEAR     73  57  56 S9        30.02S
PARSONS        CLEAR     68  65  90 CALM      30.04S
WICHITA INTL   PTCLDY    74  63  68 SE10      29.99F
WICHITA JABRA  CLEAR     73  63  70 S7        30.00S
WICHITA MCCONL CLEAR     73  66  77 SE9       30.00F
WINFIELD       CLEAR     70  65  84 SE5       30.02S
$$

KSZ007>012-019>026-033>040-048>060-102>105-170200-
NORTHEAST KANSAS

CITY           SKY/WX    TMP DP  RH WIND       PRES   REMARKS
CONCORDIA      PTCLDY    64  56  75 CALM      30.00S
EMPORIA        CLEAR     68  61  78 SE7       30.00F
LAWRENCE       CLEAR     62  54  74 E6        30.03F
MANHATTAN      CLEAR     68  54  60 CALM      30.00S
MARYSVILLE     CLOUDY    64  54  68 CALM      30.02R
OLATHE IND     CLEAR     65  56  72 SE6       30.04F
OLATHE EXE     CLEAR     64  55  72 SE6       30.03F
SALINA         CLEAR     71  61  70 SE8       29.98F
TOPEKA BILLARD CLEAR     67  56  67 E5        30.02S
TOPEKA FORBES  CLEAR     66  55  67 E3        30.02S
$$



USA.gov is the U.S. government's official web portal to all federal, state and local government web resources and services.